[[{"header":{"parameterUnit":"m.s-1","parameterCategory":1,"la1":30.2991,"la2":30.254,"lo1":-89.0895,"lo2":-89.0444,"dy":0.0017,"dx":0.0017,"nx":28,"ny":28,"refTime":"2024-11-30T03:00:00:Z","depth":0,"parameterNumber":2,"parameterNumberName":"U-component_of_WINDS"},"data":[0,0,0,0,0,0,0,0,0,0,0,0,0,0,0,0,0,0,0,0,0,0,0,0,0,0,0,0,0,0,0,0,0,0,0,0,0,0,0,0,0,0,0,0,0,0,0,0,0,0,0,0,0,0,0,0,0,0,-0.9385,-0.9386,0,-0.9468,-0.9469,-0.947,-0.9513,-0.9513,-0.9513,-0.9513,-0.9597,-0.9599,-0.9601,0,0,0,0,0,0,0,0,0,0,0,0,0,-0.9261,-0.9263,-0.9385,-0.9386,-0.9387,-0.9468,-0.9469,-0.947,-0.9513,-0.9513,-0.9513,-0.9513,-0.9596,-0.9598,-0.9601,0,0,0,0,0,0,0,0,0,0,0,0,0,-0.9326,-0.9263,-0.9384,-0.9418,-0.9422,-0.9467,-0.9469,-0.947,-0.9513,-0.9513,-0.9513,-0.9513,-0.9595,-0.9598,-0.9601,-0.9619,0,0,-0.9611,-0.9613,0,0,0,0,0,0,0,0,-0.9322,-0.9331,-0.9412,-0.9416,-0.942,-0.948,-0.9456,-0.952,-0.9513,-0.9478,-0.9513,-0.9513,-0.9558,-0.9564,-0.9579,-0.9623,-0.9627,-0.9612,-0.9614,-0.9615,-0.9616,0,0,0,0,0,0,0,-0.9318,-0.9327,-0.9417,-0.9413,-0.9418,-0.9428,-0.9437,-0.9468,-0.9516,-0.9481,-0.9485,-0.9494,-0.956,-0.9576,-0.9582,-0.9628,-0.9611,-0.9614,-0.9616,-0.9618,-0.969,-0.969,0,0,0,0,0,0,-0.9308,-0.9323,-0.9415,-0.942,-0.9371,-0.943,-0.9441,-0.9461,-0.9516,-0.9525,-0.9494,-0.9496,-0.957,-0.9578,-0.9585,-0.9609,-0.9615,-0.9618,-0.962,-0.969,-0.969,-0.969,0,0,0,0,0,0,-0.9305,-0.9316,-0.9411,-0.9373,-0.9385,-0.9432,-0.9454,-0.9462,-0.9479,-0.9526,-0.9534,-0.9502,-0.9571,-0.958,-0.961,-0.9613,-0.9619,-0.9622,-0.969,-0.969,-0.969,-0.9658,0,0,0,0,0,0,-0.9302,-0.9315,-0.9323,-0.9372,-0.9387,-0.9436,-0.9455,-0.9464,-0.9484,-0.9488,-0.9535,-0.9543,-0.9572,-0.9605,-0.9614,-0.9617,-0.9625,-0.969,-0.969,-0.969,-0.9659,-0.9657,-0.9655,0,0,0,0,0,-0.9297,-0.931,-0.9323,-0.9334,-0.9399,-0.9437,-0.9445,-0.9478,-0.9484,-0.9492,-0.9522,-0.9542,-0.9611,-0.9608,-0.9618,-0.9622,-0.969,-0.969,-0.969,-0.966,-0.9657,-0.9655,0,0,0,0,0,0,-0.9259,-0.9317,-0.9332,-0.9362,-0.9394,-0.9444,-0.9455,-0.9474,-0.9505,-0.9506,-0.9545,-0.9556,-0.9582,-0.9605,-0.9601,-0.9642,-0.9652,-0.9654,-0.9626,-0.9624,-0.9622,-0.9616,-0.9628,0,0,0,0,0,-0.9254,-0.9281,-0.933,-0.9352,-0.9367,-0.9408,-0.9426,-0.9448,-0.9483,-0.9497,-0.9529,-0.9561,-0.959,-0.9608,-0.9637,-0.9662,-0.9673,-0.967,-0.9668,-0.9666,-0.9667,-0.9681,-0.968,-0.969,-0.969,-0.969,0,0,-0.9245,-0.928,-0.9294,-0.9345,-0.9373,-0.9398,-0.9419,-0.9446,-0.9465,-0.95,-0.9531,-0.9556,-0.9594,-0.9621,-0.9635,-0.9642,-0.9667,-0.9666,-0.9664,-0.9667,-0.9681,-0.968,-0.9679,-0.969,-0.969,-0.969,0,0,-0.9241,-0.927,-0.9291,-0.9318,-0.9359,-0.9386,-0.9391,-0.9438,-0.9455,-0.9487,-0.9513,-0.9536,-0.9585,-0.9612,-0.9631,-0.9635,-0.9654,-0.9643,-0.9633,-0.9646,-0.9645,-0.9645,-0.9645,-0.9645,-0.9644,-0.9644,-0.9644,0,-0.9223,-0.9264,-0.9299,-0.9324,-0.9345,-0.9378,-0.9399,-0.9423,-0.9471,-0.9485,-0.9491,-0.9553,-0.9581,-0.9615,-0.9616,-0.9631,-0.9637,-0.9638,-0.9642,-0.9642,-0.9642,-0.9644,-0.9644,-0.9643,-0.9643,-0.9643,-0.9643,0,-0.924,-0.9268,-0.928,-0.9326,-0.9348,-0.9371,-0.9408,-0.9427,-0.9446,-0.9472,-0.9503,-0.9538,-0.9574,-0.9584,-0.9604,-0.962,-0.9623,-0.9635,-0.9646,-0.9639,-0.9641,-0.9642,-0.964,-0.9641,-0.9641,-0.9642,0,0,-0.9216,-0.928,-0.9284,-0.9305,-0.9352,-0.9374,-0.9397,-0.9433,-0.9448,-0.9479,-0.95,-0.954,-0.9552,-0.9574,-0.9597,-0.9608,-0.9608,-0.9619,-0.9621,-0.9616,-0.9627,-0.9617,-0.9617,-0.962,-0.9621,-0.9621,-0.9624,0,-0.9218,-0.9263,-0.9294,-0.9326,-0.9352,-0.9382,-0.9403,-0.9433,-0.9458,-0.9482,-0.9509,-0.9537,-0.955,-0.9564,-0.9576,-0.9605,-0.9611,-0.9605,-0.9639,-0.964,-0.9628,-0.9618,-0.9608,-0.9609,-0.9625,-0.9625,-0.9625,0,-0.9227,-0.9258,-0.9293,-0.9336,-0.9348,-0.9366,-0.9401,-0.9424,-0.9459,-0.9475,-0.9499,-0.9523,-0.9548,-0.9556,-0.9591,-0.9587,-0.9602,-0.9618,-0.9619,-0.9623,-0.9632,-0.9622,-0.961,-0.961,-0.9626,-0.9626,-0.9626,0,-0.9206,-0.9256,-0.9283,-0.9299,-0.9351,-0.9362,-0.9384,-0.9419,-0.9438,-0.9468,-0.9481,-0.9513,-0.9531,-0.9555,-0.9586,-0.9589,-0.9617,-0.9628,-0.9631,-0.963,-0.9636,-0.9635,-0.9626,-0.9646,-0.9646,-0.9646,-0.9646,0,-0.9205,-0.9225,-0.9273,-0.929,-0.9312,-0.9347,-0.9369,-0.9393,-0.9423,-0.9445,-0.9473,-0.9492,-0.9532,-0.9555,-0.9579,-0.9604,-0.9612,-0.9626,-0.9632,-0.9623,-0.9621,-0.9634,-0.9634,-0.9646,-0.9646,-0.9646,-0.9646,0,-0.9185,-0.9218,-0.9249,-0.9295,-0.9307,-0.9322,-0.936,-0.9377,-0.9402,-0.9429,-0.9437,-0.9477,-0.9506,-0.9539,-0.9579,-0.9595,-0.9618,-0.9627,-0.9606,-0.9609,-0.961,-0.961,-0.9609,-0.961,-0.9629,-0.9629,-0.9628,0,-0.9182,-0.9198,-0.9245,-0.9262,-0.9283,-0.9309,-0.9328,-0.9363,-0.9382,-0.9421,-0.9433,-0.9464,-0.9491,-0.9536,-0.9568,-0.9598,-0.9608,-0.9606,-0.9613,-0.9603,-0.9608,-0.9606,-0.9608,-0.9604,-0.9604,-0.9603,-0.9603,0,-0.9174,-0.919,-0.9217,-0.925,-0.9272,-0.9299,-0.9328,-0.9339,-0.9379,-0.9399,-0.9429,-0.945,-0.949,-0.952,-0.9555,-0.9576,-0.9596,-0.96,-0.9603,-0.9594,-0.9581,-0.9588,-0.96,-0.96,-0.9601,-0.9601,-0.9601,-0.9601,-0.9163,-0.9178,-0.9213,-0.9242,-0.9267,-0.9293,-0.931,-0.9337,-0.9363,-0.9399,-0.9418,-0.9447,-0.948,-0.9528,-0.9549,-0.9572,-0.9579,-0.9582,-0.9583,-0.9583,-0.958,-0.9577,-0.9578,-0.9578,-0.9579,-0.9579,-0.9579,0,-0.9156,-0.918,-0.9206,-0.9245,-0.9267,-0.9284,-0.9315,-0.9333,-0.9359,-0.9388,-0.9413,-0.9447,-0.9476,-0.951,-0.9541,-0.9553,-0.9563,-0.956,-0.956,-0.9564,-0.9573,-0.9568,-0.9552,-0.9552,-0.9552,-0.9552,-0.9552,-0.9552,-0.9155,-0.9181,-0.9201,-0.9239,-0.9262,-0.9292,-0.9308,-0.9331,-0.9355,-0.9391,-0.9416,-0.9437,-0.9468,-0.9502,-0.9529,-0.9538,-0.9548,-0.9542,-0.9554,-0.9561,-0.9564,-0.9566,-0.9561,-0.9544,-0.9544,-0.9543,-0.9543,-0.9543]},{"header":{"parameterUnit":"m.s-1","parameterCategory":1,"la1":30.2991,"la2":30.254,"lo1":-89.0895,"lo2":-89.0444,"dy":0.0017,"dx":0.0017,"nx":28,"ny":28,"refTime":"2024-11-30T03:00:00:Z","depth":0,"parameterNumber":3,"parameterNumberName":"V-component_of_WINDS"},"data":[0,0,0,0,0,0,0,0,0,0,0,0,0,0,0,0,0,0,0,0,0,0,0,0,0,0,0,0,0,0,0,0,0,0,0,0,0,0,0,0,0,0,0,0,0,0,0,0,0,0,0,0,0,0,0,0,0,0,-1.3825,-1.3825,0,-1.3797,-1.3796,-1.3796,-1.3822,-1.3823,-1.3824,-1.3825,-1.3795,-1.3793,-1.3792,0,0,0,0,0,0,0,0,0,0,0,0,0,-1.3901,-1.39,-1.3825,-1.3825,-1.3825,-1.3797,-1.3796,-1.3796,-1.3822,-1.3823,-1.3825,-1.3826,-1.3796,-1.3794,-1.3791,0,0,0,0,0,0,0,0,0,0,0,0,0,-1.387,-1.3899,-1.3825,-1.3834,-1.3835,-1.3797,-1.3796,-1.3796,-1.3822,-1.3823,-1.3825,-1.3826,-1.3796,-1.3794,-1.3791,-1.3743,0,0,-1.3783,-1.3782,0,0,0,0,0,0,0,0,-1.3872,-1.3867,-1.3833,-1.3834,-1.3834,-1.3815,-1.3812,-1.3778,-1.3821,-1.3827,-1.3825,-1.3827,-1.38,-1.3797,-1.3789,-1.3741,-1.374,-1.3783,-1.3781,-1.378,-1.3779,0,0,0,0,0,0,0,-1.3874,-1.3869,-1.3814,-1.3833,-1.3833,-1.3839,-1.3837,-1.3806,-1.3805,-1.3826,-1.3828,-1.3824,-1.3801,-1.3791,-1.3788,-1.374,-1.3783,-1.378,-1.3779,-1.3778,-1.3651,-1.3649,0,0,0,0,0,0,-1.3875,-1.387,-1.3815,-1.3813,-1.3857,-1.3837,-1.3834,-1.3819,-1.3805,-1.3805,-1.3823,-1.3826,-1.3795,-1.3791,-1.3787,-1.3728,-1.378,-1.3777,-1.3776,-1.3652,-1.365,-1.3648,0,0,0,0,0,0,-1.3877,-1.387,-1.3816,-1.3842,-1.3836,-1.3834,-1.3817,-1.3818,-1.3808,-1.3803,-1.3803,-1.3813,-1.3796,-1.3791,-1.3753,-1.3728,-1.3776,-1.3774,-1.3655,-1.3652,-1.3649,-1.3611,0,0,0,0,0,0,-1.3879,-1.387,-1.3852,-1.3842,-1.3834,-1.3783,-1.3816,-1.3816,-1.3803,-1.3807,-1.3794,-1.3793,-1.3797,-1.3757,-1.3751,-1.3725,-1.3772,-1.3657,-1.3653,-1.365,-1.3615,-1.3608,-1.3602,0,0,0,0,0,-1.3881,-1.3843,-1.3851,-1.3844,-1.3811,-1.3781,-1.3777,-1.3783,-1.3801,-1.3783,-1.3779,-1.3793,-1.3732,-1.3753,-1.3746,-1.3719,-1.3658,-1.3654,-1.365,-1.3618,-1.3609,-1.3602,0,0,0,0,0,0,-1.385,-1.3841,-1.3851,-1.3807,-1.3795,-1.3786,-1.3763,-1.3773,-1.3755,-1.3759,-1.3766,-1.3763,-1.3723,-1.3718,-1.3742,-1.3671,-1.3698,-1.3693,-1.3676,-1.3668,-1.3661,-1.3662,-1.3769,0,0,0,0,0,-1.3838,-1.3815,-1.3809,-1.3771,-1.3764,-1.3765,-1.3752,-1.3757,-1.3744,-1.3739,-1.3733,-1.372,-1.3698,-1.3683,-1.3662,-1.3615,-1.3612,-1.3593,-1.3586,-1.3581,-1.3575,-1.3549,-1.354,-1.3635,-1.3635,-1.3635,0,0,-1.3813,-1.3806,-1.379,-1.3765,-1.3755,-1.373,-1.376,-1.3733,-1.3714,-1.3735,-1.3699,-1.3694,-1.368,-1.3637,-1.3618,-1.3631,-1.3549,-1.3576,-1.3572,-1.3569,-1.3544,-1.3535,-1.3527,-1.3633,-1.3633,-1.3634,0,0,-1.3755,-1.3747,-1.3714,-1.3705,-1.3691,-1.3691,-1.3683,-1.3673,-1.367,-1.3634,-1.3649,-1.3628,-1.3589,-1.3578,-1.3568,-1.3505,-1.3517,-1.3498,-1.3463,-1.3437,-1.343,-1.3423,-1.3399,-1.3391,-1.3493,-1.3493,-1.3493,0,-1.3725,-1.3688,-1.3696,-1.3667,-1.3655,-1.3673,-1.364,-1.363,-1.361,-1.3601,-1.3617,-1.3568,-1.356,-1.3515,-1.3499,-1.3491,-1.3481,-1.3499,-1.343,-1.3424,-1.3418,-1.3395,-1.3386,-1.3491,-1.3491,-1.3491,-1.3492,0,-1.3652,-1.3626,-1.3601,-1.3581,-1.3567,-1.3536,-1.3538,-1.3522,-1.3529,-1.3528,-1.3491,-1.3482,-1.3459,-1.3449,-1.3456,-1.3404,-1.3413,-1.3429,-1.3456,-1.3406,-1.3385,-1.3376,-1.3488,-1.3488,-1.3489,-1.349,0,0,-1.3571,-1.3556,-1.3547,-1.3537,-1.3524,-1.3504,-1.3474,-1.3452,-1.3437,-1.3423,-1.3397,-1.3365,-1.338,-1.3368,-1.3373,-1.3351,-1.33,-1.337,-1.337,-1.3356,-1.3242,-1.3228,-1.3218,-1.3309,-1.3307,-1.3306,-1.3242,0,-1.3511,-1.3458,-1.3464,-1.3413,-1.3389,-1.3407,-1.338,-1.3369,-1.3367,-1.3346,-1.3344,-1.332,-1.3343,-1.3335,-1.3314,-1.3311,-1.3277,-1.3316,-1.3284,-1.3282,-1.3285,-1.3207,-1.3193,-1.3133,-1.3234,-1.3233,-1.3232,0,-1.3433,-1.3415,-1.3362,-1.3352,-1.3342,-1.3318,-1.3298,-1.3278,-1.3265,-1.3265,-1.3252,-1.3262,-1.3231,-1.326,-1.3217,-1.3243,-1.3231,-1.3227,-1.3225,-1.3221,-1.3253,-1.3199,-1.3114,-1.3104,-1.3219,-1.322,-1.3221,0,-1.3377,-1.3341,-1.3304,-1.3296,-1.3283,-1.3265,-1.3259,-1.3248,-1.3234,-1.3217,-1.3208,-1.3188,-1.3176,-1.316,-1.3164,-1.3185,-1.312,-1.3149,-1.3118,-1.3118,-1.3102,-1.3102,-1.3012,-1.3097,-1.3097,-1.3097,-1.3097,0,-1.3307,-1.3274,-1.3278,-1.3256,-1.3218,-1.3226,-1.3189,-1.3185,-1.3175,-1.3152,-1.3166,-1.3144,-1.3151,-1.3129,-1.3132,-1.3095,-1.309,-1.3089,-1.309,-1.3086,-1.3086,-1.3077,-1.308,-1.3095,-1.3095,-1.3096,-1.3096,0,-1.3238,-1.324,-1.3201,-1.3192,-1.3189,-1.3162,-1.3154,-1.3132,-1.3132,-1.3102,-1.3096,-1.3095,-1.307,-1.3072,-1.3044,-1.3046,-1.3,-1.3007,-1.3004,-1.3005,-1.2973,-1.2975,-1.2872,-1.2858,-1.2953,-1.2953,-1.2952,0,-1.3192,-1.3167,-1.3155,-1.3141,-1.3133,-1.3109,-1.3095,-1.3102,-1.3087,-1.3071,-1.3051,-1.3027,-1.3008,-1.2967,-1.2964,-1.2942,-1.2947,-1.2913,-1.2944,-1.2941,-1.2945,-1.2946,-1.2942,-1.2906,-1.2905,-1.2904,-1.2903,0,-1.3111,-1.3113,-1.3093,-1.3072,-1.3055,-1.3039,-1.3025,-1.3012,-1.3018,-1.3,-1.2974,-1.2959,-1.2931,-1.2906,-1.2886,-1.288,-1.2891,-1.2894,-1.2885,-1.288,-1.2879,-1.2878,-1.2985,-1.2895,-1.2896,-1.2897,-1.2897,-1.2897,-1.3051,-1.3029,-1.3017,-1.2993,-1.2983,-1.297,-1.2949,-1.2946,-1.2925,-1.2901,-1.2907,-1.2878,-1.2866,-1.284,-1.2831,-1.2808,-1.2821,-1.2809,-1.2805,-1.2802,-1.2797,-1.2884,-1.2805,-1.2805,-1.2805,-1.2805,-1.2806,0,-1.2969,-1.2962,-1.2941,-1.292,-1.2901,-1.2915,-1.29,-1.2883,-1.2857,-1.2845,-1.2826,-1.2797,-1.2773,-1.2769,-1.2746,-1.2729,-1.2734,-1.2722,-1.2723,-1.2721,-1.2788,-1.2797,-1.2719,-1.2719,-1.2719,-1.2719,-1.2719,-1.2719,-1.2924,-1.2886,-1.2887,-1.2845,-1.2839,-1.281,-1.28,-1.2788,-1.2778,-1.2744,-1.2724,-1.2722,-1.2712,-1.269,-1.2669,-1.2668,-1.2658,-1.2644,-1.2646,-1.2708,-1.2716,-1.2725,-1.2733,-1.2643,-1.2643,-1.258,-1.258,-1.2579]}]]